Theta_e
292 294 301 311 315 318 320 322 324 326 326 329 332 337 340 338 336 338 338 338 338 338 339 340 339 341 341 339 338 337 336 336 337 335 336 338 338 339 335 332 334 337 339
291 294 299 308 312 315 316 319 320 322 323 325 326 329 335 339 338 337 338 337 338 337 337 338 338 339 339 336 335 336 336 336 333 333 336 335 337 337 335 333 332 336 337
290 292 300 305 308 311 312 315 316 318 319 320 324 324 326 329 334 338 337 336 337 337 336 337 336 337 338 337 336 336 335 332 330 329 334 338 338 338 336 332 333 337 336
288 289 297 302 304 307 308 311 312 314 315 316 318 319 321 323 325 328 331 336 337 336 336 335 336 336 337 335 336 336 333 328 328 327 335 337 338 336 337 336 336 336 335
287 288 294 299 301 303 304 306 307 308 309 311 313 315 316 317 319 321 323 327 332 336 337 335 334 334 334 335 333 334 331 330 329 329 333 335 337 336 338 337 336 336 335
286 286 289 295 298 299 301 302 303 304 304 305 308 310 311 312 313 316 319 325 324 328 333 336 336 334 332 334 335 333 333 333 331 332 332 332 334 335 337 338 335 335 333
286 286 286 291 294 295 298 298 300 300 301 301 302 303 304 305 308 311 312 314 317 321 324 330 335 337 334 333 334 334 333 333 331 330 329 331 331 333 336 338 336 334 334
285 285 286 286 288 291 293 295 296 296 297 297 298 298 299 297 300 304 308 311 313 314 316 323 328 334 337 334 333 334 333 333 332 330 329 331 333 333 335 337 337 334 334
284 285 285 286 286 287 287 291 292 293 293 293 293 293 292 292 294 296 298 303 308 312 312 315 319 327 333 336 334 332 333 334 332 330 329 332 334 336 336 337 337 335 333
284 284 285 285 285 286 286 287 286 289 287 287 288 288 289 291 291 292 293 296 299 305 310 319 318 321 329 334 335 334 332 334 334 330 329 331 332 335 334 335 337 335 334
284 283 284 284 285 285 285 285 286 286 286 286 287 287 287 288 288 289 290 291 293 296 302 311 316 320 322 330 333 334 333 335 333 334 331 327 333 332 333 334 335 336 334
283 283 283 283 283 284 284 284 285 285 284 284 284 285 285 286 286 287 288 289 290 292 295 300 307 313 320 322 327 330 333 334 334 334 332 326 328 333 333 334 333 334 334
282 282 282 282 282 282 282 283 283 283 283 283 283 283 284 284 284 285 286 287 288 289 291 294 297 303 309 314 319 323 328 332 333 334 332 328 326 329 331 334 334 334 332
282 282 282 282 282 282 282 281 281 281 281 282 282 282 282 283 283 283 284 284 285 287 287 289 291 294 298 305 311 316 323 327 331 333 333 329 324 326 333 333 332 333 333
281 281 281 281 281 281 282 281 281 282 281 281 281 281 281 282 281 283 282 283 284 286 285 287 289 292 293 296 302 308 315 321 327 331 332 332 326 322 328 335 332 331 333
281 281 282 281 281 281 281 281 281 281 281 281 281 280 280 281 281 282 282 282 283 284 284 286 288 291 291 293 295 301 308 315 321 327 332 332 331 326 323 328 334 331 333
281 280 280 281 280 280 280 280 280 280 280 280 280 280 280 280 280 281 281 281 282 283 283 285 288 289 289 291 293 295 300 309 315 324 329 331 331 331 326 323 329 330 330
281 280 280 280 280 280 280 280 280 280 280 280 280 280 280 280 280 280 280 281 281 282 283 284 286 285 287 290 292 294 295 301 309 318 325 332 331 331 331 325 323 329 330
281 280 280 280 280 280 280 280 280 280 280 280 280 279 279 280 280 280 280 280 281 281 282 283 283 284 286 288 290 292 294 296 303 312 321 327 331 330 331 331 325 322 331
281 280 280 280 280 279 279 279 279 279 279 279 279 279 279 279 279 280 280 280 280 280 281 282 282 283 285 287 288 290 294 299 302 308 316 325 330 329 330 330 329 325 327
281 280 280 279 279 279 278 279 279 279 279 279 279 279 279 279 279 279 279 279 280 280 280 280 281 282 285 286 287 292 292 297 300 307 315 322 330 329 328 329 329 326 327
280 280 279 279 279 278 278 278 278 278 279 278 279 279 279 279 279 279 279 279 279 280 280 280 280 281 284 285 285 288 299 304 313 313 316 322 327 328 327 328 329 329 327
280 279 279 279 278 278 278 278 278 278 278 278 278 278 278 278 278 279 279 279 279 279 279 279 280 281 283 282 284 287 295 300 296 307 318 324 327 327 326 327 327 328 328
280 279 279 279 278 278 278 278 277 277 277 278 278 278 278 278 278 278 279 279 279 279 279 279 279 280 281 281 282 286 288 288 295 298 301 306 319 326 326 326 326 327 328
279 279 278 278 278 278 277 277 277 277 277 277 277 277 277 278 278 278 278 278 279 279 279 279 279 279 280 280 281 283 285 287 290 294 297 302 301 307 313 326 326 326 327
279 278 278 277 277 277 277 276 276 276 276 277 277 277 277 277 278 278 278 278 278 278 279 279 279 279 279 280 281 282 283 285 289 291 294 296 296 300 306 311 326 326 326
Wind_Speed
28 29 30 34 33 34 34 34 33 33 34 34 33 30 15 12 9 9 7 4 2 3 2 4 5 7 10 9 8 7 7 7 6 8 9 9 10 9 9 11 13 12 14
23 26 29 32 31 33 33 33 33 33 33 30 34 33 31 20 12 9 8 7 6 5 5 6 5 5 6 6 7 7 7 6 6 8 9 8 10 9 10 12 12 12 13
20 23 33 29 28 31 32 33 33 33 32 32 28 32 32 31 30 19 11 8 8 7 6 6 6 6 6 5 5 7 5 6 6 8 11 9 9 10 11 13 13 12 12
19 20 28 27 27 29 31 31 32 32 32 32 31 30 30 30 30 29 26 17 10 9 7 6 5 4 4 4 6 6 6 6 7 8 9 10 9 11 13 13 12 11 10
19 21 22 24 25 28 29 29 31 31 32 32 31 30 29 29 29 27 27 27 18 11 10 7 6 6 4 6 7 8 7 7 8 9 10 11 11 11 15 14 12 12 12
18 22 23 26 24 27 29 29 31 32 32 32 32 30 29 29 29 28 23 19 23 20 17 10 8 8 7 7 8 8 9 8 10 10 11 12 13 14 16 16 15 14 13
20 23 23 24 26 27 29 30 30 30 31 31 30 30 28 27 27 27 26 26 23 23 22 18 12 9 10 10 10 11 11 12 13 12 12 13 14 15 15 19 16 14 13
20 24 26 28 27 25 27 29 29 30 30 30 30 30 28 28 27 26 25 25 25 25 24 17 15 12 9 12 12 12 12 13 15 15 14 13 12 14 17 21 17 15 14
21 24 27 30 31 30 30 29 29 29 30 30 30 30 29 28 27 26 25 25 25 24 24 22 20 10 8 7 14 14 13 15 16 18 18 15 12 12 12 20 18 17 15
22 25 27 29 30 30 30 31 31 28 31 32 32 32 30 28 28 26 25 25 25 23 22 20 19 15 14 13 12 15 16 17 18 20 22 21 17 15 12 16 17 17 16
21 24 25 29 30 30 28 32 32 32 33 34 33 32 33 31 30 28 27 26 25 24 21 19 19 18 17 15 13 14 17 18 19 19 22 25 23 20 17 16 19 18 18
20 22 25 27 29 29 28 31 32 32 32 32 32 31 30 28 30 29 28 28 26 24 23 22 20 18 17 18 16 14 14 19 20 20 23 26 27 25 23 19 21 21 21
15 20 24 26 28 30 29 30 31 31 31 31 31 31 29 27 29 29 29 30 29 27 26 25 24 22 20 19 20 19 17 16 22 22 24 28 29 29 25 19 24 25 24
18 20 22 24 26 28 28 28 26 25 26 28 29 30 28 26 29 27 26 27 26 24 27 27 26 25 23 21 20 21 22 20 20 23 24 29 30 32 27 21 26 29 26
16 19 21 22 24 25 26 27 27 27 27 27 25 25 25 23 24 23 25 25 24 23 24 25 25 24 25 23 23 22 23 24 23 23 24 30 31 33 33 24 28 29 29
17 20 20 21 22 22 23 23 23 23 24 25 26 27 26 21 21 21 23 22 21 21 24 23 22 22 24 25 26 25 25 25 28 23 27 27 32 33 37 34 27 29 30
14 15 17 15 18 20 22 22 17 16 18 19 22 24 25 23 22 20 20 21 21 21 23 22 20 20 23 24 26 25 28 28 28 33 28 31 30 35 36 39 35 30 31
12 14 16 18 21 23 26 28 28 28 26 21 18 19 21 22 23 21 21 19 19 21 20 20 19 23 23 22 24 29 31 30 31 28 31 30 31 34 38 39 41 35 33
13 16 19 20 21 22 26 28 28 28 27 27 29 27 23 18 20 20 21 21 20 19 18 18 20 20 24 24 25 28 30 35 35 33 34 34 34 38 40 40 40 40 36
11 14 16 18 17 20 25 23 24 25 24 25 25 23 22 21 20 19 19 19 20 20 19 18 19 20 19 23 27 31 32 29 31 35 36 33 34 38 41 42 41 39 39
11 14 15 15 15 22 20 16 17 19 21 22 21 22 21 22 21 19 17 18 18 17 19 19 18 20 20 19 21 17 29 30 33 37 36 38 37 37 39 42 44 43 42
13 15 17 13 16 22 20 19 19 20 20 23 26 22 22 22 22 21 20 18 17 18 18 18 17 20 17 10 12 18 7 10 10 21 29 34 39 33 36 39 44 45 43
13 16 17 14 18 23 22 19 18 18 18 18 20 22 21 22 23 23 22 20 18 16 17 18 17 15 17 18 11 7 4 4 13 9 12 32 34 33 35 36 39 41 43
12 17 16 14 22 20 22 19 18 18 19 20 21 22 24 23 23 21 21 21 19 18 17 17 15 16 15 19 16 8 13 14 4 7 13 15 12 35 35 34 35 41 44
15 18 14 18 23 21 21 20 18 19 19 21 21 23 23 24 21 21 21 21 21 20 19 19 18 16 15 18 17 16 15 17 18 8 9 13 26 20 19 35 38 38 41
18 17 16 20 18 20 20 20 19 20 22 22 23 24 23 22 22 21 21 21 21 22 22 20 19 18 18 18 19 18 18 13 12 9 6 10 16 21 25 25 36 37 40
Wind_Direction
347 356 358 1 4 9 15 18 19 20 25 30 30 30 16 11 5 7 355 346 324 313 262 225 211 195 176 174 173 154 143 130 139 142 143 146 139 134 129 129 126 123 124
346 5 8 5 8 11 15 17 19 22 24 22 27 26 31 22 10 4 1 350 345 329 316 292 272 238 209 186 175 169 163 156 156 157 156 156 153 152 144 143 135 134 129
354 6 23 8 11 14 17 18 20 22 24 25 22 23 22 26 32 26 5 344 332 327 316 308 292 270 239 230 211 186 182 183 171 174 171 166 165 162 155 150 142 139 138
1 10 23 10 16 19 20 19 22 22 23 25 24 23 17 19 24 25 27 25 0 338 331 322 313 288 253 230 245 225 202 197 188 179 182 181 179 179 166 156 151 149 148
14 17 20 17 21 23 23 23 23 24 24 24 21 21 19 16 16 18 18 18 22 14 353 326 308 298 270 245 235 234 223 208 203 190 195 197 195 197 180 168 165 162 160
21 23 23 17 23 25 24 25 24 24 24 24 21 19 17 16 15 14 10 6 11 17 6 352 308 289 270 249 246 243 233 222 216 210 212 212 215 206 198 176 178 171 167
32 32 30 22 23 23 23 24 25 24 23 23 21 20 17 16 15 12 9 7 1 1 1 8 351 301 279 269 251 248 241 227 223 227 226 224 224 217 208 185 183 177 172
34 33 33 32 28 26 25 23 24 22 21 21 19 18 16 15 13 11 7 1 359 358 357 354 350 347 303 274 265 244 237 228 229 231 231 229 226 219 228 192 183 181 182
39 35 33 31 29 28 26 22 21 20 20 18 15 13 12 12 9 8 3 359 356 351 351 351 349 315 290 281 265 253 235 231 233 233 231 227 217 213 205 194 186 184 185
37 35 32 30 27 26 22 20 20 20 18 14 11 9 6 3 3 2 0 356 354 349 345 329 327 310 269 260 264 260 247 238 233 236 233 228 217 216 213 204 191 190 192
35 32 30 27 25 24 19 17 16 14 11 10 7 4 1 0 358 355 355 354 352 347 341 333 329 323 310 277 271 260 255 244 240 233 233 230 224 219 227 224 206 198 197
25 25 25 24 22 21 18 15 13 12 11 10 6 3 1 356 355 352 349 349 347 344 339 333 329 328 315 304 288 277 269 251 242 239 237 234 230 228 227 228 216 207 202
22 24 24 22 19 17 15 13 12 10 7 6 5 2 358 355 353 351 349 347 345 343 339 335 329 324 321 312 301 288 270 274 249 242 242 239 234 232 230 231 218 214 208
27 25 23 21 17 15 12 11 8 7 4 4 2 1 358 353 352 351 348 346 345 343 340 337 331 325 315 311 302 293 278 264 272 250 246 244 236 234 230 228 219 216 214
26 22 21 18 13 10 8 5 3 2 1 359 359 359 359 354 351 348 345 344 341 339 339 335 331 325 320 313 302 296 286 273 259 261 251 250 240 235 232 223 218 220 218
23 19 14 13 9 5 3 360 358 356 355 355 355 356 355 354 350 345 342 341 338 336 334 333 329 323 319 316 305 297 288 279 269 260 253 250 245 237 233 226 219 221 218
21 14 10 3 1 2 360 355 349 351 353 353 354 352 351 351 348 345 341 338 335 333 332 331 328 321 320 315 306 299 290 280 273 250 258 248 247 240 235 232 225 220 220
13 8 7 3 1 360 358 354 350 347 344 344 340 344 349 348 346 341 338 335 334 331 330 330 327 324 321 315 308 303 298 286 274 265 252 245 243 243 234 232 230 224 220
7 2 358 356 355 353 349 344 340 338 339 339 339 338 338 336 341 337 334 331 332 330 327 327 324 324 321 315 310 302 294 286 275 266 251 249 236 242 239 231 230 226 221
4 0 353 346 347 346 340 339 336 334 333 332 331 331 329 328 328 328 327 326 328 327 325 326 323 320 316 313 311 300 295 286 278 267 257 248 234 235 238 235 228 227 222
1 352 347 340 342 344 342 334 332 328 325 324 323 322 322 322 321 320 316 318 321 319 320 323 322 322 321 323 319 319 302 287 272 263 255 243 235 230 235 230 230 225 222
345 342 338 333 336 341 339 331 327 324 317 317 321 320 320 319 318 316 312 312 312 314 315 320 322 321 314 326 322 306 314 313 276 256 246 235 231 227 231 230 228 228 225
335 337 333 328 332 336 336 330 323 317 310 311 312 312 314 314 313 312 309 308 307 306 306 312 314 315 310 308 309 292 305 304 340 302 268 236 228 224 222 223 225 223 223
323 333 330 324 329 331 331 326 318 311 307 308 307 307 309 311 309 306 303 302 301 300 298 301 303 302 300 300 310 280 269 301 310 319 318 327 278 238 232 220 222 227 223
326 332 330 325 325 327 325 322 316 308 305 306 304 305 307 306 303 301 298 297 296 296 293 291 294 293 287 288 289 292 291 293 275 268 290 304 323 305 310 220 219 217 218
325 328 328 327 321 321 322 319 313 306 306 306 305 303 302 302 301 296 294 291 290 289 290 290 288 286 281 280 280 278 273 271 285 302 301 306 306 305 300 295 219 213 214